Temperature
8 7 7 7 8 9 9 9 10 11 12 12 13 14 15 16 16 16 18 18 18 18 18 17 17 17 16 16 16 16 16 15 14 13 12 12 12 12 12 12 12 12 12 12
6 6 7 8 8 8 8 8 9 10 12 12 12 12 14 15 16 17 17 17 18 17 16 16 16 15 15 15 15 15 15 14 13 13 12 12 12 11 12 12 12 12 11 11
6 8 8 8 8 8 8 8 9 8 11 12 13 12 13 14 16 17 18 18 18 17 17 16 15 15 14 14 14 14 14 13 13 13 12 12 11 12 12 12 12 11 11 11
5 7 8 8 7 8 7 9 10 10 9 8 11 10 13 14 15 15 16 16 17 16 16 15 15 14 14 14 13 13 13 13 12 12 12 12 13 12 12 12 11 11 10 10
5 6 7 7 8 9 8 10 10 10 9 9 10 10 11 14 14 15 15 15 15 16 16 15 14 14 14 13 13 13 13 12 12 12 13 13 13 12 12 11 11 10 10 9
6 7 7 7 8 9 9 9 9 9 9 9 10 11 11 12 14 15 14 13 13 14 15 14 13 13 13 13 13 12 12 12 12 12 12 12 12 12 12 11 11 10 9 9
5 5 6 7 7 8 8 8 7 8 8 9 11 11 12 13 14 15 13 12 12 13 14 13 13 13 13 12 12 12 12 12 12 12 12 12 12 12 11 11 10 9 9 8
5 3 6 6 7 7 8 8 8 7 7 8 11 10 11 14 15 15 16 14 12 12 13 13 13 13 13 12 12 12 12 12 12 12 12 12 11 11 10 10 9 8 8 8
5 5 7 7 7 8 6 7 8 8 9 9 10 11 13 14 13 13 13 12 11 11 12 13 13 13 13 12 12 12 12 12 12 12 12 12 11 10 10 9 8 8 7 7
5 4 6 7 7 7 6 7 3 6 6 8 10 10 13 14 13 12 11 11 11 11 11 12 12 12 12 12 12 11 12 12 12 12 12 11 10 10 9 8 8 7 7 6
5 4 5 5 5 7 6 7 8 8 8 8 10 11 13 14 14 12 12 12 11 10 11 12 12 12 12 12 11 11 11 12 11 11 11 10 10 9 8 7 7 6 6 5
6 5 5 6 7 7 8 8 9 8 9 10 8 9 13 14 14 13 13 12 11 10 11 12 12 12 11 11 11 11 11 11 11 10 10 9 9 8 7 7 6 5 5 4
6 6 6 6 6 7 7 9 10 11 11 8 8 10 13 12 12 13 13 12 11 10 11 12 11 11 11 11 10 10 10 10 10 9 9 8 7 7 6 6 5 5 4 3
8 6 6 7 7 7 8 9 10 9 10 9 9 10 11 11 12 11 12 12 11 11 11 12 11 11 11 11 10 9 9 9 9 8 8 7 6 6 5 5 4 4 3 3
6 5 6 6 7 6 9 11 10 9 10 9 10 11 11 12 12 11 12 11 10 10 11 11 11 11 11 10 9 9 8 8 8 7 7 6 5 5 4 4 3 3 2 2
5 5 5 6 8 8 10 11 10 10 8 8 8 9 13 12 12 11 11 11 10 10 11 11 11 11 10 10 9 8 8 7 7 6 6 5 4 4 3 3 2 2 1 1
5 5 6 8 10 10 10 11 10 8 7 7 7 11 12 11 12 10 11 11 11 11 11 11 12 11 10 9 9 8 7 6 6 5 4 4 3 3 2 2 1 1 1 0
7 7 8 9 10 9 12 12 10 8 9 9 12 11 10 9 7 9 11 12 11 11 11 11 11 11 9 9 8 7 6 5 5 4 3 3 2 2 1 1 0 0 -0 -0
8 9 9 9 10 12 13 12 12 12 12 12 11 8 7 8 10 8 10 12 12 12 12 12 11 10 9 7 6 6 5 4 4 3 2 2 2 1 1 0 -0 -1 -1 -1
9 9 10 9 10 11 13 13 12 13 12 11 9 8 8 9 10 7 7 10 11 11 11 10 10 8 7 6 5 5 4 3 2 2 2 1 1 0 -0 -1 -1 -1 -2 -2
9 9 8 9 9 9 12 12 12 12 12 11 10 9 9 8 8 7 7 9 9 9 9 9 8 7 6 5 4 4 3 2 2 1 1 0 -0 -1 -1 -1 -2 -2 -3 -3
9 9 9 9 9 9 11 12 11 11 9 9 9 9 7 6 6 6 7 7 8 7 7 6 6 5 4 3 3 3 2 1 1 1 0 -1 -1 -2 -2 -2 -2 -3 -3 -3
8 10 10 10 9 10 10 11 11 11 9 8 9 9 9 6 5 6 6 6 6 6 6 5 5 4 3 2 2 2 1 1 0 -0 -1 -1 -2 -2 -3 -3 -3 -3 -3 -4
10 10 10 10 10 9 10 11 11 11 11 9 9 9 9 7 6 6 6 5 5 5 5 4 4 3 2 1 1 0 0 -0 -1 -1 -2 -2 -3 -3 -3 -4 -4 -4 -4 -5
9 9 9 9 8 8 9 10 11 11 10 9 8 8 8 7 6 6 6 5 5 4 4 3 3 2 1 1 0 -0 -1 -1 -2 -2 -3 -3 -3 -3 -4 -4 -5 -5 -5 -7
8 9 9 10 9 10 9 10 10 10 9 9 8 7 7 7 7 6 5 5 4 3 3 2 1 1 0 -0 -1 -1 -1 -2 -2 -3 -3 -3 -4 -4 -4 -4 -4 -5 -6 -7
Wind_Speed
2 5 9 11 9 9 10 11 11 4 6 9 15 17 15 14 13 13 13 9 11 11 8 7 7 8 7 7 8 9 14 15 15 13 11 9 6 5 5 6 11 12 12 12
3 9 9 7 9 9 12 16 13 7 9 11 12 16 14 17 16 15 13 11 11 9 8 8 8 7 6 8 9 11 14 14 13 10 7 6 5 5 5 5 8 11 12 11
14 10 11 12 12 11 16 16 11 9 12 17 15 18 14 14 11 13 10 13 17 18 15 12 10 8 8 8 10 12 13 12 12 12 11 9 8 6 4 5 5 7 10 11
13 17 14 13 14 13 15 11 12 11 8 7 3 8 9 9 12 15 12 12 16 13 11 10 11 10 10 9 9 12 13 13 13 13 12 13 8 6 4 4 5 5 9 10
10 11 16 19 19 18 11 9 11 9 9 11 12 10 8 9 12 17 16 16 18 18 17 16 14 13 11 9 10 11 12 12 10 11 11 10 7 5 5 6 7 7 6 8
10 6 8 9 11 15 10 7 6 7 5 14 15 12 11 11 11 12 13 15 18 17 13 12 10 12 10 8 9 10 12 9 10 11 11 11 11 9 9 7 6 5 4 4
8 14 8 4 4 8 11 9 6 8 9 8 7 13 13 16 17 14 10 14 18 18 18 17 16 15 13 12 11 10 12 10 11 12 11 11 11 10 10 8 7 5 3 2
8 9 13 13 15 7 14 16 11 5 5 4 7 11 9 20 23 15 11 16 21 20 18 18 17 17 16 14 12 11 12 11 11 12 11 10 11 9 7 7 7 5 4 3
9 8 6 9 12 15 8 15 19 6 7 5 7 6 9 15 12 11 13 20 23 22 21 19 17 15 15 14 12 12 13 12 11 12 12 11 10 10 8 8 6 5 3 2
8 6 7 7 7 15 12 9 8 9 6 5 7 6 9 11 11 12 19 21 21 20 18 16 16 14 13 11 10 10 11 11 10 11 10 9 10 9 9 8 7 5 3 2
8 7 3 4 12 16 16 12 10 10 8 3 5 6 9 12 12 17 19 21 22 21 19 17 15 13 12 12 11 11 10 11 10 10 10 10 9 8 8 7 6 4 3 2
12 8 8 9 6 12 18 19 16 10 11 8 5 9 7 14 9 18 19 19 18 19 17 16 14 12 13 12 11 10 10 10 9 9 10 9 8 8 7 6 5 4 3 2
11 6 4 4 6 10 15 21 21 16 8 6 5 9 11 4 8 12 15 16 16 16 15 13 13 13 13 12 10 10 10 10 9 9 10 9 8 7 6 5 4 3 3 4
11 5 6 6 2 7 14 21 18 15 12 11 13 16 23 10 9 9 12 16 17 17 17 15 13 12 12 12 11 10 10 10 10 10 9 8 7 6 5 4 3 3 4 5
8 6 9 16 15 13 15 24 22 16 12 12 11 19 30 20 11 12 13 15 16 16 16 16 16 13 13 12 11 10 10 9 10 10 9 7 6 5 4 4 3 4 4 5
7 4 6 11 10 16 14 24 21 15 11 10 14 17 22 7 5 9 13 16 17 18 17 16 15 14 13 13 12 11 10 9 10 9 8 7 6 5 4 3 3 4 6 6
7 4 4 2 10 12 9 19 16 9 13 16 19 20 8 5 5 7 12 17 19 18 17 17 16 14 13 13 13 12 10 10 9 9 8 6 5 5 4 4 4 5 5 6
6 3 4 1 4 2 2 15 23 23 26 27 19 6 9 9 6 7 3 7 10 12 13 13 13 12 10 10 11 11 10 10 9 8 7 6 5 5 4 4 4 4 4 5
7 3 3 3 1 1 1 4 11 13 9 5 6 9 8 8 6 9 9 6 8 9 11 12 12 12 12 12 12 12 10 9 9 7 6 5 5 4 3 3 4 3 4 5
7 4 2 3 3 2 2 2 2 2 3 3 9 13 12 7 5 1 4 10 15 14 14 15 14 15 14 11 11 12 10 9 7 7 6 5 4 4 3 3 4 3 4 6
3 3 3 1 2 5 4 1 2 4 5 4 10 12 10 5 6 10 9 11 13 14 15 15 14 13 11 10 11 11 9 7 7 6 5 4 4 4 4 4 4 4 6 6
6 5 4 3 2 5 3 2 2 4 2 4 6 7 10 13 16 14 12 12 13 13 12 13 13 11 8 9 12 10 8 7 6 6 5 5 5 5 5 6 6 6 6 6
5 6 5 6 7 3 1 1 1 2 5 5 7 12 19 18 16 13 10 10 10 11 11 10 12 11 8 8 10 10 7 6 6 6 5 5 5 5 5 5 6 5 6 6
3 1 3 3 3 1 1 2 3 4 5 9 13 16 18 19 15 13 11 10 10 10 10 10 11 10 8 7 8 8 7 6 6 6 5 4 4 5 5 4 4 5 5 6
4 4 3 3 2 1 2 2 5 9 13 14 13 13 16 18 15 13 11 10 9 9 8 9 10 10 8 8 7 7 6 7 6 5 4 3 3 3 4 4 4 5 6 8
6 7 7 7 8 7 6 8 9 12 12 15 17 14 9 11 13 12 10 8 8 9 8 8 9 9 8 8 7 6 6 6 5 3 2 2 2 3 4 5 6 9 12 16
Wind_Direction
221 208 219 219 223 248 265 270 263 279 297 286 275 278 267 260 250 239 243 228 206 201 196 191 164 151 140 137 139 138 130 129 126 128 124 119 113 97 83 82 88 87 84 78
250 238 231 230 232 238 250 260 272 296 282 276 280 285 280 256 249 237 226 203 198 189 187 180 161 151 150 140 132 133 132 133 133 131 123 123 120 101 91 81 79 81 79 75
223 237 226 217 229 229 240 245 259 266 293 284 286 288 269 258 246 248 220 192 188 186 183 176 162 158 146 142 139 138 139 136 132 127 120 111 105 92 80 78 73 70 77 73
234 238 247 231 230 222 243 227 233 241 251 279 275 278 255 245 235 239 229 193 187 184 172 170 159 157 153 153 142 139 141 138 139 138 138 141 138 135 142 126 104 81 75 73
212 205 218 229 231 227 239 223 224 232 236 264 258 258 258 252 240 227 218 198 188 181 174 172 166 154 146 145 141 142 140 138 137 133 135 132 122 122 120 112 106 88 71 69
223 223 207 213 226 226 236 240 253 250 247 247 237 235 251 233 237 230 215 193 180 173 163 158 151 140 133 132 130 135 131 130 132 131 133 135 134 130 126 131 121 109 85 63
235 239 237 194 218 214 211 224 233 217 218 246 220 217 248 246 248 233 206 182 174 166 158 159 157 150 144 141 136 135 130 129 130 127 129 131 131 130 134 141 137 130 111 80
213 231 213 206 208 188 204 205 215 215 218 224 191 229 243 238 243 250 232 184 168 162 162 164 161 153 148 143 136 132 129 127 125 123 122 121 120 121 123 127 125 128 137 153
208 230 196 195 199 194 204 208 220 270 290 254 229 262 267 247 244 215 175 163 167 162 165 165 158 154 149 145 141 138 133 127 123 123 121 118 117 116 117 118 117 121 129 117
206 228 203 175 178 215 208 185 166 209 229 242 243 229 229 226 205 164 160 167 166 162 161 160 158 155 149 141 136 132 132 130 127 122 119 117 114 114 117 119 119 121 110 70
187 217 233 177 195 200 211 221 197 190 225 258 283 266 239 234 186 164 173 171 168 165 163 161 160 156 142 135 137 135 131 126 122 119 116 114 113 114 116 118 122 117 102 63
195 205 226 231 230 217 209 210 205 202 211 231 292 289 303 269 210 172 178 170 166 162 159 159 155 146 142 143 140 137 131 126 125 121 115 112 115 118 118 120 119 111 83 23
182 209 222 218 215 230 218 211 203 215 214 209 202 267 321 273 177 179 167 156 158 155 152 153 152 152 148 145 138 134 131 128 125 120 116 115 121 124 127 128 117 82 40 359
179 218 227 247 231 210 202 198 196 199 216 213 232 265 292 287 168 160 158 158 159 159 158 158 155 149 145 143 140 136 129 128 126 122 120 127 134 134 134 122 89 50 17 352
184 233 236 251 238 199 207 184 184 195 180 205 246 239 258 258 186 170 160 156 155 159 163 165 161 154 148 141 136 134 132 129 127 126 128 135 134 131 118 94 60 30 11 358
181 240 259 268 220 178 186 173 173 174 163 220 263 276 257 217 121 137 153 158 164 168 167 164 157 151 148 143 140 136 134 132 131 130 131 133 130 118 103 77 43 24 11 359
186 210 275 335 121 142 172 175 182 202 218 211 230 237 184 115 118 145 163 169 172 171 165 160 156 150 144 143 144 139 136 131 125 123 128 132 125 111 91 67 39 17 0 349
196 211 273 339 125 96 225 173 179 196 211 212 209 152 107 122 101 52 43 158 153 148 145 140 133 127 123 119 121 120 122 123 123 125 128 126 114 100 76 52 28 354 344 339
198 213 309 357 328 23 39 111 174 197 204 221 108 102 109 135 97 32 18 68 105 110 113 117 120 122 119 120 124 122 121 119 118 121 120 114 109 98 67 31 2 345 333 322
206 200 283 348 5 32 307 344 69 98 295 156 146 153 158 159 126 156 35 79 89 91 100 106 109 113 116 120 123 121 120 117 118 120 115 108 102 89 52 14 353 332 318 306
169 165 203 327 340 282 268 309 99 149 238 155 159 163 156 134 129 129 105 85 90 95 100 105 108 113 120 122 118 116 117 119 123 117 111 97 75 56 42 16 351 330 324 318
168 158 177 165 218 267 292 345 183 192 110 115 122 116 107 109 106 106 106 104 105 102 102 105 109 111 114 117 117 117 119 128 123 112 97 76 52 39 33 11 347 334 325 322
201 190 166 190 213 234 340 360 6 119 114 113 112 123 123 120 118 117 116 114 111 109 108 108 114 113 107 109 118 123 136 132 115 98 79 56 41 39 25 4 336 326 327 326
272 167 162 226 267 25 43 56 53 67 92 104 120 127 128 125 126 124 123 122 117 115 116 117 113 112 111 112 116 126 133 123 110 95 74 52 30 14 356 337 324 324 325 327
214 171 171 255 291 39 255 186 122 97 101 100 97 113 124 125 126 129 129 127 126 125 122 125 127 126 128 126 119 119 118 114 105 93 68 33 4 338 332 336 330 330 326 325
197 173 168 211 196 178 191 160 137 125 124 125 119 108 98 119 123 124 124 126 126 128 128 126 126 130 133 128 121 115 109 109 107 92 47 341 342 339 336 329 332 344 340 335
Height
1484 1488 1486 1486 1486 1484 1482 1479 1478 1478 1475 1474 1467 1462 1459 1457 1453 1452 1451 1451 1451 1454 1458 1460 1461 1461 1463 1465 1468 1470 1472 1474 1476 1480 1484 1487 1490 1493 1495 1498 1500 1500 1500 1501
1488 1484 1482 1483 1484 1484 1482 1481 1480 1479 1475 1472 1466 1459 1455 1449 1446 1446 1445 1446 1447 1451 1454 1456 1457 1458 1460 1462 1464 1466 1469 1472 1476 1479 1482 1487 1490 1492 1495 1498 1498 1499 1499 1499
1482 1477 1477 1479 1479 1481 1479 1480 1481 1484 1476 1465 1463 1454 1450 1442 1441 1440 1439 1439 1442 1445 1448 1449 1452 1455 1458 1460 1463 1466 1469 1473 1477 1479 1482 1486 1489 1492 1494 1496 1497 1498 1498 1497
1480 1476 1474 1475 1476 1477 1477 1475 1476 1476 1478 1475 1465 1464 1443 1436 1435 1434 1433 1434 1435 1441 1444 1447 1448 1452 1456 1459 1463 1467 1470 1473 1476 1478 1481 1484 1487 1490 1493 1495 1495 1496 1496 1495
1473 1468 1470 1471 1471 1470 1471 1471 1472 1472 1473 1471 1462 1463 1443 1432 1429 1424 1423 1425 1428 1434 1438 1443 1445 1449 1454 1459 1463 1467 1469 1472 1476 1478 1481 1485 1488 1490 1492 1493 1494 1494 1494 1493
1465 1463 1463 1463 1464 1466 1469 1470 1469 1468 1468 1466 1450 1453 1435 1429 1419 1416 1415 1417 1422 1429 1435 1441 1446 1448 1452 1458 1463 1467 1469 1472 1475 1478 1481 1485 1487 1489 1490 1491 1492 1493 1492 1492
1463 1461 1460 1459 1463 1463 1467 1471 1474 1470 1468 1452 1438 1441 1425 1418 1412 1407 1409 1412 1419 1424 1430 1437 1442 1445 1449 1456 1461 1466 1468 1470 1473 1477 1480 1483 1485 1487 1489 1490 1490 1491 1491 1490
1456 1463 1452 1452 1454 1460 1458 1461 1464 1464 1459 1451 1438 1436 1417 1405 1402 1402 1403 1408 1413 1420 1427 1434 1438 1442 1447 1453 1459 1464 1467 1469 1472 1475 1478 1481 1483 1485 1487 1488 1488 1488 1488 1487
1449 1447 1439 1440 1444 1452 1460 1456 1452 1458 1447 1446 1433 1418 1405 1396 1393 1392 1393 1400 1408 1413 1422 1430 1435 1441 1446 1453 1458 1462 1466 1468 1471 1474 1476 1479 1481 1483 1485 1486 1486 1487 1486 1485
1439 1448 1436 1436 1440 1444 1447 1442 1469 1464 1456 1443 1424 1418 1402 1386 1388 1389 1393 1399 1406 1413 1421 1429 1435 1441 1447 1452 1457 1462 1467 1468 1470 1473 1476 1478 1480 1481 1482 1483 1484 1484 1483 1482
1435 1442 1439 1437 1436 1434 1442 1443 1434 1434 1437 1435 1424 1414 1384 1377 1379 1383 1390 1396 1403 1410 1419 1427 1435 1441 1446 1451 1456 1461 1465 1467 1470 1472 1474 1476 1478 1479 1480 1481 1481 1481 1479 1478
1428 1432 1429 1426 1423 1424 1426 1426 1427 1428 1429 1426 1431 1420 1382 1374 1376 1381 1390 1395 1403 1410 1418 1427 1434 1439 1445 1450 1455 1460 1463 1466 1469 1471 1473 1474 1476 1477 1478 1479 1478 1478 1476 1475
1422 1426 1421 1420 1427 1423 1420 1415 1415 1414 1417 1428 1429 1416 1387 1382 1383 1385 1390 1397 1405 1412 1420 1427 1434 1439 1444 1449 1454 1458 1462 1464 1467 1469 1471 1473 1474 1475 1476 1476 1476 1475 1473 1471
1416 1417 1416 1407 1408 1406 1403 1403 1405 1412 1412 1418 1416 1412 1397 1393 1386 1388 1392 1397 1404 1411 1419 1426 1432 1437 1443 1448 1453 1457 1460 1463 1465 1468 1470 1472 1473 1474 1474 1474 1473 1471 1469 1467
1413 1413 1408 1404 1404 1404 1391 1388 1398 1407 1405 1412 1410 1414 1401 1398 1384 1386 1392 1399 1406 1412 1418 1424 1429 1435 1442 1447 1452 1456 1459 1462 1464 1466 1468 1470 1471 1472 1472 1471 1470 1468 1466 1464
1410 1411 1408 1391 1380 1385 1381 1382 1392 1398 1408 1416 1419 1413 1395 1390 1384 1387 1392 1398 1404 1410 1416 1422 1428 1434 1440 1445 1449 1454 1458 1460 1463 1465 1467 1468 1469 1469 1469 1468 1467 1465 1463 1460
1406 1405 1400 1384 1375 1379 1384 1381 1388 1400 1410 1417 1417 1401 1384 1385 1387 1390 1392 1396 1401 1407 1413 1420 1426 1433 1439 1444 1450 1453 1456 1459 1461 1463 1465 1466 1467 1467 1467 1465 1464 1462 1459 1457
1398 1399 1394 1385 1382 1387 1374 1368 1381 1395 1397 1399 1393 1380 1377 1385 1392 1393 1395 1398 1401 1407 1413 1420 1427 1434 1441 1445 1450 1453 1456 1458 1460 1462 1463 1465 1465 1465 1464 1462 1461 1459 1456 1453
1391 1392 1389 1387 1382 1374 1370 1370 1374 1378 1380 1377 1375 1380 1384 1388 1391 1396 1397 1400 1403 1408 1414 1421 1428 1435 1440 1445 1449 1452 1454 1457 1459 1460 1462 1462 1462 1462 1461 1460 1458 1455 1452 1449
1387 1387 1389 1389 1387 1383 1373 1369 1368 1371 1378 1373 1376 1381 1384 1388 1396 1404 1401 1402 1406 1411 1417 1424 1431 1436 1441 1445 1448 1451 1453 1456 1457 1459 1460 1460 1460 1459 1458 1457 1455 1451 1448 1444
1386 1387 1392 1392 1392 1384 1370 1369 1371 1382 1380 1372 1375 1378 1382 1386 1391 1399 1403 1406 1411 1416 1422 1427 1432 1437 1441 1444 1447 1450 1452 1454 1456 1457 1458 1458 1458 1457 1456 1454 1451 1448 1444 1440
1383 1384 1385 1387 1392 1391 1369 1369 1374 1374 1371 1371 1375 1380 1384 1388 1393 1399 1405 1411 1415 1419 1424 1429 1433 1437 1441 1444 1447 1449 1452 1453 1455 1456 1456 1456 1456 1455 1453 1451 1448 1444 1440 1435
1378 1375 1378 1382 1384 1374 1370 1370 1371 1371 1371 1373 1375 1381 1384 1390 1397 1403 1409 1415 1419 1423 1426 1431 1434 1437 1441 1445 1447 1449 1451 1453 1454 1454 1454 1454 1453 1451 1449 1446 1443 1439 1434 1429
1371 1369 1373 1375 1372 1372 1372 1372 1373 1373 1374 1376 1379 1383 1387 1392 1400 1407 1413 1418 1421 1425 1429 1433 1436 1438 1441 1444 1447 1449 1450 1451 1452 1452 1452 1451 1450 1448 1446 1442 1438 1434 1429 1424
1371 1370 1374 1373 1372 1372 1373 1373 1375 1375 1377 1380 1384 1388 1392 1397 1404 1410 1415 1419 1423 1426 1430 1434 1436 1438 1440 1443 1445 1447 1449 1450 1450 1450 1450 1448 1447 1444 1442 1439 1435 1431 1427 1423
1366 1367 1371 1368 1365 1367 1368 1372 1374 1376 1379 1384 1387 1393 1399 1403 1407 1412 1417 1421 1424 1427 1431 1433 1436 1438 1440 1442 1444 1446 1447 1448 1448 1448 1447 1445 1443 1441 1438 1435 1432 1429 1425 1421